SL-16 DEB, 22330

Orbit data source: Space-Track

SL-16 DEB, 22330 is space debris in LEO originally from a launch on Fri, 25 Dec 1992 UTC launched from the Tyuratam Missile And Space Complex (TTMTR). Debris objects in space refer to the collection of defunct objects orbiting the Earth. Examples of debris include non-operational satellites, rocket bodies, and fragments generated from explosions, collisions, or faulty payload assembly.

Loading next visibility...
Identifier
22330, 1992-093T
Orbit
LEO
Country
Flag of CISCIS
Related business
Manufacturer
Unknown
Mission
Spacecraft
Bus & Motor
Unknown
Mass
Unknown
Launch date (UTC)
1992-12-25 (33 years ago)
Launch vehicle
Unknown
Launch site
Tyuratam Missile And Space Complex (TTMTR)
Object type
Payload
Rocket body
Debris
Shape & HBR
Unknown shape, 0.3 m
Radar Cross Section
Medium (>0.1 m² and <1 m²)

Expand to show TLE details & history
Last TLE update: 2 days ago

TLE from 2 days ago
0 SL-16 DEB
1 22330U 92093T   26171.46119755  .00000345  00000-0  21330-3 0  9992
2 22330  70.4144 208.0935 0110518  10.8594 103.0947 14.09743642714581
Epoch: 2026-06-20T11:04Z
TLE epoch observation values (Epoch: 2026-06-20T11:04:07.468Z)
Latitude
58.60486°
Longitude
-82.05982°
Altitude
888.536 km
Speed
7.404 km/s
True Right ascension
23h 30m 35s
True Declination
58° 27' 16"
Sunlit
Object was in daylight at epoch
Visualization orbit readout
Latitude
Unknown
Longitude
Unknown
Altitude
Unknown
Speed
Unknown
Apparent Right ascension
Unknown
Apparent Declination
Unknown
Sunlit
N/A
Visualization observer readout
Local Sidereal Time
01:06:55
Azimuth
Unknown
Elevation
Unknown
Doppler factor
Unknown
Orbital elements
Apogee altitude
938.212 km
Perigee altitude
778.262 km
Semi-major axis
7,236.374 km
Eccentricity
0.01105
Inclination
70.4144°
RAAN
208.0935°
Arg. of periapsis
10.8594°
True anomaly
104.32427°
Mean anomaly
103.0947°
Eccentric anomaly
103.70988°
Mean motion
3.52583 °/min
Orbital period
102.1 mins
BSTAR
0.0002133
Loading maneuver chart data...
Computing Atmospheric mass density...
Loading historical data...
Loading historical data...
Loading historical data...
Loading historical data...
Loading historical data...
Loading historical data...
Loading historical data...

Documentation

Showing up to 5 results
|